Regional Weather Roundup
Issued by NWS

Home | Current Version | Previous Version | Graphics & Text | Print | Product List | Glossary On
Versions: 1 2 3 4 5 6 7 8 9 10 11 12 13 14 15 16 17 18 19 20 21 22 23 24 25 26 27 28 29 30 31 32 33 34 35 36 37 38 39 40 41 42 43 44 45 46 47 48 49 50
000
ASUS43 KFSD 151610
RWRSD

WEATHER ROUNDUP FOR SOUTH DAKOTA
NATIONAL WEATHER SERVICE SIOUX FALLS SD
1000 AM CST MON JAN 15 2018

NOTE: "FAIR" INDICATES FEW OR NO CLOUDS BELOW 12,000 FEET WITH NO
SIGNIFICANT WEATHER AND/OR OBSTRUCTIONS TO VISIBILITY.


SDZ001>005-009-010-012>017-151700-
NORTHWEST AND NORTH CENTRAL SOUTH DAKOTA

CITY           SKY/WX    TMP DP  RH WIND       PRES   REMARKS
BUFFALO          N/A     -8 -15  71 NW21      30.62R WCI -33
FAITH            N/A     -9 -16  71 NW20      30.69R WCI -34
MOBRIDGE       SUNNY     -7 -16  65 NW18      30.70R WCI -30
$$

SDZ012>016-024>037-041>051-057-063-072>074-151700-
SOUTHWEST AND SOUTH CENTRAL SOUTH DAKOTA

CITY           SKY/WX    TMP DP  RH WIND       PRES   REMARKS
RAPID CTY ARPT CLOUDY    -3  -9  75 N31G39    30.66R BLWGSNOWWCI -30
PIERRE         SUNNY     -5 -14  65 N25G33    30.71R WCI -31
CUSTER         SUNNY      3 -12  49 N10G20    30.37R WCI -12
ELLSWORTH AFB  CLOUDY    -2  -8  78 NW30G36   30.64  BLWGSNOWWCI -29
PHILIP         SUNNY     -5 -11  75 NW16G29   30.75R WCI -27
PINE RIDGE     SUNNY      0  -9  65 N15G24    30.64R WCI -19
SPEARFISH      LGT SNOW  -6 -11  77 W13       30.64R WCI -25
WINNER         CLOUDY    -2 -10  69 NW25G32   30.68R WCI -27
$$

SDZ004>011-016>023-039-040-151700-
NORTHEAST SOUTH DAKOTA

CITY           SKY/WX    TMP DP  RH WIND       PRES   REMARKS
ABERDEEN       CLOUDY    -6 -14  68 N22G32    30.69R WCI -31
WATERTOWN      CLOUDY   -10 -16  74 N22       30.53R WCI -36
BROOKINGS      CLOUDY    -9 -16  71 MISG        N/A
SISSETON         N/A     -8 -14  74 N25       30.62R WCI -35
$$

SDZ017-020-022-023-036>040-048>070-151700-
SOUTHEAST SOUTH DAKOTA

CITY           SKY/WX    TMP DP  RH WIND       PRES   REMARKS
SIOUX FALLS    PTSUNNY   -5 -12  72 N18G29    30.55R WCI -28
HURON          CLOUDY    -6 -13  71 N23       30.67R WCI -31
CHAMBERLAIN    SUNNY     -3 -10  70 NW23      30.68R WCI -27
MITCHELL       CLOUDY    -4 -11  72 N28G37    30.66R HAZE    WCI -30
YANKTON        SUNNY     -3 -10  72 NW25G33   30.61R WCI -28
$$

ABBREVIATIONS USED IN REMARKS
   TC - TEMPERATURE IN CELSIUS
  WCI - WIND CHILL INDEX
   HX - HEAT INDEX
  VSB - VISIBILITY





USA.gov is the U.S. government's official web portal to all federal, state and local government web resources and services.